COSMOS 2251 DEB, 34040

Orbit data source: Space-Track

COSMOS 2251 DEB, 34040 is space debris in LEO originally from a launch on Wed, 16 Jun 1993 UTC launched from the Plesetsk Missile And Space Complex (PKMTR). The debris from Iridium 33, an American commercial communications satellite, has been tracked extensively since its accidental collision with the defunct Russian satellite Cosmos 2251 in 2009. This event, occurring at high speed in low Earth orbit (LEO), generated thousands of pieces of space debris, significantly increasing the risk of further collisions. The Iridium 33 debris cloud has impacted space traffic management and orbital debris mitigation strategies, making it a subject of ongoing study in space situational awareness.

Loading next visibility...
Identifier
34040, 1993-036JB
Orbit
LEO
Country
Flag of CISCIS
Related business
Manufacturer
Unknown
Mission
Spacecraft
Bus & Motor
Unknown
Mass
Unknown
Launch date (UTC)
1993-06-16 (33 years ago)
Launch vehicle
Unknown
Launch site
Plesetsk Missile And Space Complex (PKMTR)
Object type
Payload
Rocket body
Debris
Shape & HBR
Unknown shape, 0.1 m
Radar Cross Section
Small (<0.1 m²)

Expand to show TLE details & history
Last TLE update: 7 hours ago

TLE from 7 hours ago
0 COSMOS 2251 DEB
1 34040U 93036JB  26121.50743045  .00000711  00000-0  56872-3 0  9992
2 34040  73.9570 194.7932 0337373 121.1053 242.3630 13.68933180855121
Epoch: 2026-05-01T12:10Z
TLE epoch observation values (Epoch: 2026-05-01T12:10:41.990Z)
Latitude
-0.00005°
Longitude
152.67954°
Altitude
1,127.913 km
Speed
7.228 km/s
True Right ascension
12h 59m 10s
True Declination
0° 00' 00"
Sunlit
Object was in full shadow at epoch
Visualization orbit readout
Latitude
Unknown
Longitude
Unknown
Altitude
Unknown
Speed
Unknown
Apparent Right ascension
Unknown
Apparent Declination
Unknown
Sunlit
N/A
Visualization observer readout
Local Sidereal Time
02:24:18
Azimuth
Unknown
Elevation
Unknown
Doppler factor
Unknown
Orbital elements
Apogee altitude
1,250.061 km
Perigee altitude
752.149 km
Semi-major axis
7,379.242 km
Eccentricity
0.03374
Inclination
73.957°
RAAN
194.7932°
Arg. of periapsis
121.1053°
True anomaly
239.00576°
Mean anomaly
242.363°
Eccentric anomaly
240.67765°
Mean motion
3.42394 °/min
Orbital period
105.14 mins
BSTAR
0.00056872
Loading maneuver chart data...
Computing Atmospheric mass density...

Documentation

Showing up to 5 results
|